Regional Weather Roundup
Issued by NWS

Home | Current Version | Previous Version | Graphics & Text | Print | Product List | Glossary Off
Versions: 1 2 3 4 5 6 7 8 9 10 11 12 13 14 15 16 17 18 19 20 21 22 23 24 25 26 27 28 29 30 31 32 33 34 35 36 37 38 39 40 41 42 43 44 45 46 47 48 49 50

000
ASUS43 KTOP 260059
RWRKS

WEATHER ROUNDUP FOR KANSAS
NATIONAL WEATHER SERVICE GOODLAND KS
800 PM CDT WED MAY 25 2016

NOTE:  "FAIR" INDICATES FEW OR NO CLOUDS BELOW 12,000 FEET WITH NO
SIGNIFICANT WEATHER AND/OR OBSTRUCTIONS TO VISIBILITY.

KSZ001>006-013>018-027>032-041>047-260200-
NORTHWEST KANSAS

CITY           SKY/WX    TMP DP  RH WIND       PRES   REMARKS
GOODLAND       SUNNY     75  50  41 SE9       29.87F
HAYS           CLEAR     72  64  78 NE3       29.83S
HILL CITY      CLEAR     76  62  62 CALM      29.86S
RUSSELL        CLEAR     77  69  76 NE6       29.81F
$$

KSZ061>065-074>080-084>089-260200-
SOUTHWEST KANSAS

CITY           SKY/WX    TMP DP  RH WIND       PRES   REMARKS
DODGE CITY     CLEAR     77  65  66 NE8       29.84F
ELKHART          N/A     84  30  14 S6          N/A
GARDEN CITY    CLEAR     83  50  31 E9        29.84S
GREAT BEND     CLEAR     79  66  65 N8        29.81S
LIBERAL        CLEAR     82  37  20 S9        29.85S
$$

KSZ066>073-081>083-090>101-260200-
SOUTHEAST KANSAS

CITY           SKY/WX    TMP DP  RH WIND       PRES   REMARKS
CHANUTE        CLEAR     80  72  76 S15       29.84F
COFFEYVILLE    MOCLDY    82  73  74 S10       29.86R
HUTCHINSON     CLEAR     84  64  50 S8        29.78S
MEDICINE LODGE   N/A     88  54  31 SW3       29.78F
NEWTON         CLEAR     81  70  69 S15         N/A
PARSONS        PTCLDY    81  75  82 S6        29.87S
WICHITA INTL   PTCLDY    84  72  67 S20G25    29.78S
WICHITA JABRA  CLOUDY    82  72  71 S16G23    29.79F
WINFIELD       PTCLDY    83  72  69 S10       29.82S
$$

KSZ007>012-019>026-033>040-048>060-102>105-260200-
NORTHEAST KANSAS

CITY           SKY/WX    TMP DP  RH WIND       PRES   REMARKS
CONCORDIA      CLOUDY    76  69  79 NE5       29.81S
EMPORIA        PTCLDY    79  73  82 SE12      29.81S
LAWRENCE       MOCLDY    78  69  73 SE6       29.83S
MANHATTAN      CLOUDY    77  69  76 E5        29.78F
OLATHE IND     PTCLDY    78  70  76 SE7       29.86S
OLATHE EXE     PTCLDY    76  68  76 S9        29.86S
SALINA         CLEAR     83  73  72 NW13      29.76R
TOPEKA BILLARD CLOUDY    79  69  71 SE7       29.83R
TOPEKA FORBES  MOCLDY    80  70  71 SE7       29.83R
$$



USA.gov is the U.S. government's official web portal to all federal, state and local government web resources and services.